[[{"header":{"parameterUnit":"m.s-1","parameterCategory":1,"la1":30.2991,"la2":30.254,"lo1":-89.0895,"lo2":-89.0444,"dy":0.0017,"dx":0.0017,"nx":28,"ny":28,"refTime":"2025-04-21T21:00:00:Z","depth":0,"parameterNumber":2,"parameterNumberName":"U-component_of_WINDS"},"data":[0,0,0,0,0,0,0,0,0,0,0,0,0,0,0,0,0,0,0,0,0,0,0,0,0,0,0,0,0,0,0,0,0,0,0,0,0,0,0,0,0,0,0,0,0,0,0,0,0,0,0,0,0,0,0,0,0,0,-0.6626,-0.6627,0,-0.672,-0.6721,-0.6722,-0.6766,-0.6766,-0.6766,-0.6766,-0.6863,-0.6865,-0.6868,0,0,0,0,0,0,0,0,0,0,0,0,0,-0.6485,-0.6487,-0.6625,-0.6627,-0.6628,-0.6719,-0.6721,-0.6722,-0.6766,-0.6766,-0.6766,-0.6766,-0.6862,-0.6865,-0.6868,0,0,0,0,0,0,0,0,0,0,0,0,0,-0.6559,-0.6488,-0.6625,-0.6661,-0.6665,-0.6719,-0.6721,-0.6722,-0.6766,-0.6766,-0.6766,-0.6766,-0.6861,-0.6865,-0.6869,-0.6895,0,0,-0.6881,-0.6882,0,0,0,0,0,0,0,0,-0.6555,-0.6564,-0.6654,-0.6659,-0.6663,-0.6731,-0.6707,-0.678,-0.6766,-0.6728,-0.6766,-0.6766,-0.6819,-0.6826,-0.6844,-0.6899,-0.6903,-0.6881,-0.6883,-0.6885,-0.6886,0,0,0,0,0,0,0,-0.655,-0.6561,-0.6663,-0.6656,-0.6661,-0.6673,-0.6683,-0.6721,-0.6773,-0.6731,-0.6735,-0.6745,-0.6821,-0.684,-0.6847,-0.6905,-0.6881,-0.6884,-0.6887,-0.6888,-0.6987,-0.6987,0,0,0,0,0,0,-0.6539,-0.6556,-0.666,-0.6666,-0.6608,-0.6675,-0.6687,-0.6709,-0.6772,-0.6782,-0.6745,-0.6747,-0.6834,-0.6842,-0.685,-0.6886,-0.6885,-0.6889,-0.6891,-0.6987,-0.6987,-0.6987,0,0,0,0,0,0,-0.6536,-0.6548,-0.6656,-0.6612,-0.6626,-0.6678,-0.6703,-0.6711,-0.673,-0.6783,-0.6793,-0.6755,-0.6834,-0.6845,-0.6884,-0.689,-0.6891,-0.6894,-0.6986,-0.6987,-0.6987,-0.6956,0,0,0,0,0,0,-0.6531,-0.6546,-0.6556,-0.6612,-0.6629,-0.6687,-0.6703,-0.6713,-0.6737,-0.674,-0.6795,-0.6804,-0.6835,-0.6877,-0.6887,-0.6895,-0.6897,-0.6986,-0.6986,-0.6987,-0.6957,-0.6955,-0.6954,0,0,0,0,0,-0.6526,-0.6544,-0.6556,-0.6569,-0.6642,-0.6687,-0.6697,-0.6732,-0.6737,-0.6748,-0.6782,-0.6802,-0.6887,-0.6881,-0.6893,-0.6902,-0.6986,-0.6986,-0.6987,-0.6957,-0.6955,-0.6954,0,0,0,0,0,0,-0.6488,-0.6551,-0.6566,-0.6602,-0.6639,-0.6695,-0.6709,-0.6729,-0.6765,-0.6767,-0.6809,-0.6821,-0.6856,-0.6883,-0.6875,-0.6931,-0.6938,-0.6941,-0.6912,-0.6911,-0.6909,-0.6902,-0.6901,0,0,0,0,0,-0.6483,-0.6514,-0.6568,-0.6595,-0.6612,-0.6658,-0.6678,-0.6703,-0.6742,-0.6758,-0.6795,-0.6833,-0.6869,-0.6891,-0.6927,-0.6961,-0.6974,-0.6973,-0.6971,-0.697,-0.6972,-0.6993,-0.6993,-0.6989,-0.6989,-0.6989,0,0,-0.6474,-0.6513,-0.653,-0.6588,-0.6619,-0.6651,-0.667,-0.6703,-0.6727,-0.6763,-0.6802,-0.683,-0.6876,-0.6912,-0.693,-0.6936,-0.6976,-0.6971,-0.6969,-0.6972,-0.6994,-0.6994,-0.6994,-0.6989,-0.6989,-0.6989,0,0,-0.6475,-0.6507,-0.6533,-0.6564,-0.6611,-0.6641,-0.6647,-0.67,-0.672,-0.676,-0.6788,-0.6818,-0.6878,-0.6909,-0.6933,-0.6946,-0.6966,-0.6957,-0.695,-0.6969,-0.697,-0.697,-0.6976,-0.6977,-0.6959,-0.6958,-0.6958,0,-0.6458,-0.6506,-0.6544,-0.6575,-0.66,-0.6634,-0.6661,-0.669,-0.6746,-0.6762,-0.6768,-0.6845,-0.6877,-0.6922,-0.6925,-0.6943,-0.6952,-0.6951,-0.6967,-0.6968,-0.6969,-0.6974,-0.6976,-0.6957,-0.6957,-0.6957,-0.6957,0,-0.6484,-0.6517,-0.6532,-0.6586,-0.6613,-0.6641,-0.6683,-0.6706,-0.6728,-0.6758,-0.6798,-0.6839,-0.6884,-0.6896,-0.6918,-0.6944,-0.6946,-0.6958,-0.6967,-0.6967,-0.6973,-0.6975,-0.6955,-0.6955,-0.6956,-0.6956,0,0,-0.6462,-0.6536,-0.6541,-0.6566,-0.6621,-0.6648,-0.6679,-0.6723,-0.6741,-0.6779,-0.6807,-0.6857,-0.6869,-0.6896,-0.6922,-0.6939,-0.6948,-0.6949,-0.6951,-0.6948,-0.698,-0.6971,-0.6973,-0.6961,-0.6962,-0.6962,-0.6977,0,-0.647,-0.6526,-0.6561,-0.6604,-0.6635,-0.6669,-0.6696,-0.6733,-0.6761,-0.6793,-0.6825,-0.686,-0.6873,-0.6889,-0.6908,-0.6942,-0.6955,-0.6942,-0.6987,-0.6988,-0.6975,-0.6976,-0.6966,-0.6977,-0.6979,-0.6979,-0.698,0,-0.6487,-0.6524,-0.657,-0.6622,-0.6637,-0.666,-0.6704,-0.6733,-0.6776,-0.6795,-0.6826,-0.6852,-0.6886,-0.6892,-0.694,-0.6931,-0.6952,-0.6972,-0.6973,-0.6979,-0.6984,-0.6982,-0.6982,-0.6984,-0.6984,-0.6983,-0.6983,0,-0.6467,-0.6529,-0.6564,-0.6585,-0.6646,-0.6662,-0.6688,-0.6731,-0.6756,-0.6794,-0.681,-0.6852,-0.6875,-0.6906,-0.6943,-0.6944,-0.6988,-0.6997,-0.7006,-0.7005,-0.7014,-0.7013,-0.7018,-0.7026,-0.7026,-0.7026,-0.7026,0,-0.6473,-0.65,-0.6556,-0.6578,-0.6609,-0.6649,-0.6679,-0.6708,-0.6746,-0.6775,-0.6807,-0.6833,-0.688,-0.6912,-0.6941,-0.6977,-0.6987,-0.7004,-0.7011,-0.7001,-0.6999,-0.7016,-0.7016,-0.7027,-0.7027,-0.7027,-0.7027,0,-0.6456,-0.6495,-0.6536,-0.6591,-0.6606,-0.6626,-0.6674,-0.6696,-0.6727,-0.6763,-0.6773,-0.6822,-0.6861,-0.6901,-0.6954,-0.6974,-0.7009,-0.7019,-0.6995,-0.6999,-0.7006,-0.7005,-0.7022,-0.7026,-0.7031,-0.7031,-0.7031,0,-0.6457,-0.6479,-0.6536,-0.6557,-0.6583,-0.6617,-0.6642,-0.6683,-0.6708,-0.6759,-0.6775,-0.6817,-0.6853,-0.6915,-0.6955,-0.6996,-0.7007,-0.701,-0.7014,-0.7003,-0.7008,-0.7006,-0.7009,-0.7009,-0.7009,-0.7008,-0.7008,0,-0.6455,-0.6474,-0.6509,-0.6551,-0.658,-0.6615,-0.6651,-0.6667,-0.6715,-0.6741,-0.6782,-0.681,-0.6864,-0.6906,-0.6952,-0.698,-0.7002,-0.7007,-0.7011,-0.7001,-0.6987,-0.6995,-0.6991,-0.7006,-0.7007,-0.7007,-0.7007,-0.7007,-0.6448,-0.6469,-0.6513,-0.6551,-0.6583,-0.6616,-0.664,-0.6674,-0.6709,-0.6756,-0.6778,-0.6819,-0.6863,-0.6927,-0.6954,-0.6987,-0.6993,-0.6999,-0.7001,-0.7002,-0.7,-0.6981,-0.6996,-0.6996,-0.6996,-0.6996,-0.6996,0,-0.6448,-0.6478,-0.6513,-0.6563,-0.6593,-0.6612,-0.6653,-0.6677,-0.6713,-0.6751,-0.6786,-0.6833,-0.6874,-0.6917,-0.696,-0.6978,-0.699,-0.6988,-0.6988,-0.6994,-0.6992,-0.6984,-0.6978,-0.6978,-0.6978,-0.6978,-0.6978,-0.6978,-0.6452,-0.6489,-0.6512,-0.6565,-0.6595,-0.6635,-0.6658,-0.6689,-0.672,-0.6771,-0.6805,-0.6833,-0.6874,-0.692,-0.6958,-0.697,-0.6985,-0.698,-0.6995,-0.6993,-0.6994,-0.6995,-0.6988,-0.6983,-0.6983,-0.6995,-0.6995,-0.6995]},{"header":{"parameterUnit":"m.s-1","parameterCategory":1,"la1":30.2991,"la2":30.254,"lo1":-89.0895,"lo2":-89.0444,"dy":0.0017,"dx":0.0017,"nx":28,"ny":28,"refTime":"2025-04-21T21:00:00:Z","depth":0,"parameterNumber":3,"parameterNumberName":"V-component_of_WINDS"},"data":[0,0,0,0,0,0,0,0,0,0,0,0,0,0,0,0,0,0,0,0,0,0,0,0,0,0,0,0,0,0,0,0,0,0,0,0,0,0,0,0,0,0,0,0,0,0,0,0,0,0,0,0,0,0,0,0,0,0,3.1428,3.1429,0,3.1469,3.1469,3.147,3.1448,3.1447,3.1446,3.1445,3.1484,3.1486,3.1488,0,0,0,0,0,0,0,0,0,0,0,0,0,3.1331,3.1333,3.1428,3.1429,3.1429,3.1469,3.1469,3.147,3.1448,3.1447,3.1446,3.1445,3.1483,3.1486,3.1488,0,0,0,0,0,0,0,0,0,0,0,0,0,3.1372,3.1333,3.1428,3.1424,3.1424,3.1468,3.1469,3.147,3.1449,3.1447,3.1446,3.1444,3.1483,3.1486,3.1489,3.154,0,0,3.1498,3.1499,0,0,0,0,0,0,0,0,3.137,3.1376,3.1424,3.1424,3.1424,3.1452,3.1449,3.1493,3.1449,3.1439,3.1445,3.1443,3.1475,3.1478,3.1489,3.1541,3.1543,3.1498,3.15,3.1501,3.1502,0,0,0,0,0,0,0,3.1367,3.1374,3.1444,3.1424,3.1425,3.1419,3.1423,3.1457,3.1465,3.144,3.1438,3.1444,3.1474,3.1486,3.149,3.1544,3.1498,3.1501,3.1503,3.1504,3.164,3.1641,0,0,0,0,0,0,3.1365,3.1372,3.1443,3.1445,3.1393,3.1422,3.1426,3.1444,3.1465,3.1466,3.1445,3.1442,3.1482,3.1486,3.1491,3.1552,3.1501,3.1504,3.1506,3.1638,3.164,3.1642,0,0,0,0,0,0,3.1363,3.1371,3.1441,3.1408,3.1417,3.1425,3.1446,3.1446,3.1458,3.1469,3.147,3.1456,3.1481,3.1487,3.1528,3.1553,3.1506,3.1508,3.1636,3.1638,3.1641,3.1675,0,0,0,0,0,0,3.136,3.1371,3.1391,3.1409,3.1419,3.1478,3.1447,3.1448,3.1464,3.1461,3.1479,3.1481,3.148,3.1523,3.1531,3.1557,3.1511,3.1633,3.1637,3.164,3.1671,3.1678,3.1684,0,0,0,0,0,3.1357,3.1398,3.1392,3.1401,3.1444,3.148,3.1485,3.1484,3.1466,3.1486,3.1492,3.148,3.1549,3.1528,3.1536,3.1563,3.1632,3.1636,3.164,3.1668,3.1677,3.1684,0,0,0,0,0,0,3.1382,3.1401,3.1394,3.1443,3.146,3.1476,3.1501,3.1493,3.1515,3.1511,3.1508,3.1512,3.1555,3.1563,3.1539,3.1613,3.1588,3.1593,3.1607,3.1615,3.1621,3.1618,3.1513,0,0,0,0,0,3.1394,3.1422,3.1436,3.1478,3.1487,3.1492,3.1508,3.1506,3.1523,3.153,3.154,3.1556,3.1582,3.1599,3.1623,3.1672,3.1676,3.1695,3.1701,3.1706,3.1711,3.1738,3.1747,3.1655,3.1655,3.1655,0,0,3.1417,3.1431,3.1448,3.1483,3.1496,3.1525,3.1499,3.153,3.1551,3.1534,3.1574,3.1582,3.16,3.1646,3.1666,3.1654,3.1738,3.1711,3.1716,3.1718,3.1743,3.1752,3.1759,3.1658,3.1657,3.1657,0,0,3.1475,3.1488,3.1524,3.1538,3.1558,3.1562,3.1571,3.1588,3.1593,3.1633,3.1621,3.1646,3.169,3.1703,3.1716,3.1779,3.1768,3.1787,3.182,3.1846,3.1853,3.1859,3.1881,3.1889,3.1791,3.1792,3.1792,0,3.1501,3.1545,3.1543,3.1576,3.1591,3.1579,3.1615,3.1628,3.1655,3.1665,3.1651,3.1706,3.1717,3.1766,3.1781,3.1792,3.1802,3.1784,3.1852,3.1858,3.1864,3.1885,3.1894,3.1794,3.1793,3.1793,3.1793,0,3.1576,3.1606,3.1633,3.166,3.1678,3.1712,3.1716,3.1734,3.1731,3.1735,3.1776,3.1789,3.1816,3.1827,3.1823,3.1875,3.1867,3.1852,3.1826,3.1875,3.1895,3.1903,3.1797,3.1796,3.1795,3.1795,0,0,3.165,3.1677,3.1687,3.1699,3.1721,3.1744,3.1777,3.1804,3.1819,3.1838,3.1866,3.1904,3.189,3.1905,3.1902,3.1925,3.1974,3.1908,3.1908,3.192,3.2032,3.2042,3.2052,3.1967,3.1969,3.197,3.203,0,3.1709,3.1769,3.1769,3.1823,3.1851,3.1839,3.1868,3.1884,3.1889,3.1913,3.1919,3.1945,3.1926,3.1935,3.1957,3.1964,3.1997,3.1959,3.1992,3.1993,3.1988,3.2062,3.2074,3.213,3.2038,3.2039,3.204,0,3.1786,3.1809,3.1866,3.1884,3.1895,3.1921,3.1946,3.1969,3.1987,3.1989,3.2005,3.1999,3.2032,3.2006,3.2051,3.2026,3.2039,3.2044,3.2047,3.2049,3.202,3.2067,3.2147,3.2156,3.2052,3.2051,3.2051,0,3.1835,3.1879,3.1919,3.193,3.1952,3.197,3.198,3.1996,3.2012,3.2033,3.2044,3.2068,3.2081,3.21,3.21,3.2081,3.2146,3.212,3.2149,3.2149,3.2163,3.2162,3.2246,3.2172,3.2172,3.2171,3.2171,0,3.19,3.1936,3.1941,3.1966,3.2005,3.2004,3.2043,3.2051,3.2065,3.2091,3.2082,3.2106,3.2105,3.2129,3.213,3.2167,3.2173,3.2176,3.2175,3.2176,3.2176,3.2185,3.2181,3.2174,3.2173,3.2173,3.2172,0,3.1961,3.1966,3.2009,3.2026,3.2031,3.206,3.2074,3.2097,3.2102,3.2134,3.2141,3.2149,3.2177,3.2179,3.2211,3.2212,3.2257,3.2252,3.2251,3.225,3.2279,3.2276,3.2372,3.2385,3.2302,3.2303,3.2303,0,3.2002,3.203,3.205,3.2067,3.2078,3.2105,3.2122,3.2122,3.2139,3.2162,3.2182,3.2209,3.2231,3.2276,3.2284,3.2308,3.2304,3.2336,3.2308,3.2308,3.2304,3.2303,3.2305,3.2342,3.2342,3.2343,3.2344,0,3.2076,3.2077,3.2102,3.2127,3.2148,3.2168,3.2186,3.22,3.2203,3.2223,3.2252,3.2269,3.2302,3.2329,3.2353,3.2362,3.2353,3.2353,3.2361,3.2362,3.236,3.2362,3.2266,3.235,3.235,3.2349,3.2349,3.2349,3.2128,3.2152,3.217,3.2198,3.2212,3.223,3.2252,3.226,3.2285,3.2312,3.2311,3.2343,3.2359,3.2391,3.2402,3.2426,3.2415,3.2427,3.243,3.2433,3.2436,3.2357,3.2431,3.243,3.243,3.243,3.243,0,3.2201,3.2212,3.2238,3.2265,3.2286,3.2277,3.2297,3.2316,3.2344,3.2361,3.2383,3.2416,3.2442,3.2452,3.2477,3.2495,3.2492,3.2502,3.25,3.2502,3.2444,3.2435,3.2504,3.2504,3.2504,3.2504,3.2504,3.2504,3.2241,3.2281,3.2284,3.233,3.2341,3.2373,3.2385,3.2401,3.2415,3.2453,3.2475,3.2481,3.2495,3.2521,3.2545,3.2547,3.2557,3.2568,3.2569,3.2514,3.2507,3.2499,3.2491,3.2571,3.2571,3.2625,3.2626,3.2626]}]]